EW2874 Weather Reports


Display with metric or nautical units.
time (UTC)temp
F
wind
direction
speed
MPH
gust
MPH
rain 1hr
in
rain 24hr
in
rain mn
in
humidity
%
barometer
mb
20181217073349 31 313 5.0 7.0 0.00 0.00 0.00 86 1024.8
20181217073119 30 318 5.0 7.0 0.00 0.00 0.00 87 1026.4
20181217072843 31 315 5.0 7.0 0.00 0.00 0.00 86 1024.8
20181217072347 31 323 5.0 7.0 0.00 0.00 0.00 87 1024.8
20181217071844 30 300 6.0 7.0 0.00 0.00 0.00 86 1024.7
20181217071630 30 327 5.0 7.0 0.00 0.00 0.00 86 1026.3
20181217071344 30 320 6.0 7.0 0.00 0.00 0.00 86 1024.7
20181217070848 30 322 4.0 7.0 0.00 0.00 0.00 86 1024.7
20181217070347 31 317 2.0 6.0 0.00 0.00 0.00 85 1024.5
20181217070034 30 302 1.0 5.0 0.00 0.00 0.00 85 1026.2
20181217065845 31 288 2.0 4.0 0.00 0.00 0.00 85 1024.7
20181217065345 31 288 2.0 4.0 0.00 0.00 0.00 86 1024.5
20181217064840 31 280 3.0 7.0 0.00 0.00 0.00 85 1024.5
20181217064356 31 282 5.0 7.0 0.00 0.00 0.00 85 1024.7
20181217063844 31 289 5.0 7.0 0.00 0.00 0.00 85 1024.8
20181217063340 31 298 5.0 7.0 0.00 0.00 0.00 85 1024.7
20181217062844 31 301 5.0 7.0 0.00 0.00 0.00 85 1024.7
20181217062332 31 310 3.0 6.0 0.00 0.00 0.00 84 1024.5
20181217061830 31 306 3.0 6.0 0.00 0.00 0.00 84 1024.4
20181217061330 32 299 4.0 6.0 0.00 0.00 0.00 85 1024.4
20181217060835 31 294 5.0 7.0 0.00 0.00 0.00 86 1024.4
20181217060330 31 298 5.0 7.0 0.00 0.00 0.00 86 1024.4
20181217055828 31 292 4.0 6.0 0.00 0.00 0.00 85 1024.4
20181217055329 31 286 2.0 5.0 0.00 0.00 0.00 86 1024.4
20181217054822 30 288 1.0 4.0 0.00 0.00 0.00 85 1024.4
20181217054330 30 317 0.0 2.0 0.00 0.00 0.00 85 1024.4
20181217053823 30 317 1.0 2.0 0.00 0.00 0.00 85 1024.4
20181217053322 30 317 1.0 2.0 0.00 0.00 0.00 84 1024.5
20181217052828 30 317 1.0 2.0 0.00 0.00 0.00 83 1024.5
20181217052317 31 318 0.0 2.0 0.00 0.00 0.00 83 1024.7
20181217051823 31 320 0.0 2.0 0.00 0.00 0.00 82 1024.5
20181217051315 31 320 1.0 2.0 0.00 0.00 0.00 83 1024.5
20181217050814 31 320 1.0 2.0 0.00 0.00 0.00 84 1024.7
20181217050312 31 320 1.0 3.0 0.00 0.00 0.00 84 1024.8
20181217045814 31 320 1.0 4.0 0.00 0.00 0.00 84 1024.7
20181217045313 31 320 2.0 4.0 0.00 0.00 0.00 84 1024.7
20181217044811 31 320 1.0 3.0 0.00 0.00 0.00 84 1024.7
20181217044253 31 320 0.0 2.0 0.00 0.00 0.00 84 1024.7
20181217043800 31 320 1.0 2.0 0.00 0.00 0.00 84 1024.7
20181217043238 31 320 0.0 2.0 0.00 0.00 0.00 84 1024.7
20181217042733 31 320 0.0 2.0 0.00 0.00 0.00 83 1024.5
20181217042236 31 320 1.0 2.0 0.00 0.00 0.00 83 1024.4
20181217041731 31 320 1.0 2.0 0.00 0.00 0.00 83 1024.5
20181217041230 31 320 1.0 2.0 0.00 0.00 0.00 83 1024.4
20181217040733 31 320 1.0 1.0 0.00 0.00 0.00 82 1024.3
20181217040227 31 320 0.0 1.0 0.00 0.00 0.00 82 1024.4
20181217035727 31 320 0.0 0.0 0.00 0.00 0.00 82 1024.4
20181217035229 31 320 0.0 4.0 0.00 0.00 0.00 81 1024.4
20181217034724 31 320 1.0 4.0 0.00 0.00 0.00 82 1024.3
20181217034228 31 320 2.0 4.0 0.00 0.00 0.00 83 1024.3
20181217033726 31 320 1.0 4.0 0.00 0.00 0.00 83 1024.5
20181217033218 31 327 0.0 2.0 0.00 0.00 0.00 82 1024.7
20181217033045 30 327 0.0 0.0 0.00 0.00 0.00 82 1026.1
20181217032718 31 327 0.0 1.0 0.00 0.00 0.00 81 1024.5
20181217032221 31 327 0.0 1.0 0.00 0.00 0.00 81 1024.5
20181217031718 31 327 0.0 2.0 0.00 0.00 0.00 80 1024.4
20181217031528 31 327 0.0 2.0 0.00 0.00 0.00 80 1026.0
20181217031216 31 327 1.0 2.0 0.00 0.00 0.00 80 1024.5
20181217030715 31 327 1.0 2.0 0.00 0.00 0.00 79 1024.5
20181217030211 32 327 1.0 2.0 0.00 0.00 0.00 78 1024.5
20181217025719 32 327 0.0 1.0 0.00 0.00 0.00 78 1024.4
20181217025212 32 327 0.0 1.0 0.00 0.00 0.00 77 1024.4
20181217024711 33 327 0.0 1.0 0.00 0.00 0.00 76 1024.3
20181217024212 33 327 0.0 1.0 0.00 0.00 0.00 76 1024.4
20181217023707 33 327 0.0 1.0 0.00 0.00 0.00 76 1024.4
20181217023217 33 327 0.0 0.0 0.00 0.00 0.00 75 1024.4
20181217022718 33 327 0.0 1.0 0.00 0.00 0.00 75 1024.4
20181217022210 34 327 0.0 2.0 0.00 0.00 0.00 74 1024.3
20181217021715 34 327 0.0 2.0 0.00 0.00 0.00 74 1024.4
20181217021218 34 327 0.0 1.0 0.00 0.00 0.00 74 1024.5
20181217020711 35 327 1.0 2.0 0.00 0.00 0.00 73 1024.5
20181217020213 35 327 1.0 4.0 0.00 0.00 0.00 72 1024.5
20181217015706 35 327 2.0 4.0 0.00 0.00 0.00 72 1024.5
20181217015208 36 327 1.0 3.0 0.00 0.00 0.00 71 1024.4
20181217014706 36 327 0.0 2.0 0.00 0.00 0.00 71 1024.4
20181217014204 37 327 0.0 2.0 0.00 0.00 0.00 69 1024.3
20181217013706 38 327 1.0 3.0 0.00 0.00 0.00 67 1024.4
20181217013215 38 327 2.0 4.0 0.00 0.00 0.00 67 1024.4
20181217012706 39 327 2.0 4.0 0.00 0.00 0.00 66 1024.5
20181217012158 39 327 2.0 3.0 0.00 0.00 0.00 66 1024.5
20181217011659 39 327 2.0 2.0 0.00 0.00 0.00 66 1024.4
20181217011200 40 327 3.0 5.0 0.00 0.00 0.00 65 1024.4
20181217010706 40 327 5.0 6.0 0.00 0.00 0.00 64 1024.4
20181217010202 40 327 5.0 6.0 0.00 0.00 0.00 64 1024.2
20181217005708 40 327 6.0 7.0 0.00 0.00 0.00 65 1024.1
20181217005200 40 319 6.0 7.0 0.00 0.00 0.00 65 1024.2
20181217004700 40 319 5.0 7.0 0.00 0.00 0.00 64 1024.3
20181217004157 41 321 5.0 7.0 0.00 0.00 0.00 64 1024.3
20181217003655 41 329 5.0 6.0 0.00 0.00 0.00 64 1024.4
20181217003201 41 331 5.0 6.0 0.00 0.00 0.00 64 1024.4
20181217002706 41 329 5.0 6.0 0.00 0.00 0.00 64 1024.4
20181217002204 41 344 5.0 7.0 0.00 0.00 0.00 65 1024.3
20181217001709 41 327 6.0 7.0 0.00 0.00 0.00 65 1024.3
20181217001146 41 323 6.0 7.0 0.00 0.00 0.00 65 1024.3
20181217000623 41 311 6.0 8.0 0.00 0.00 0.00 64 1024.2
20181217000136 41 311 6.0 8.0 0.00 0.00 0.00 64 1025.7
20181217000108 41 311 6.0 8.0 0.00 0.00 0.00 64 1024.2
20181216235543 42 306 6.0 7.0 0.00 0.00 0.00 63 1024.1
20181216235028 42 313 7.0 8.0 0.00 0.00 0.00 63 1024.0
20181216234536 42 309 7.0 10.0 0.00 0.00 0.00 62 1024.0
20181216234021 42 306 8.0 10.0 0.00 0.00 0.00 62 1024.0
20181216233531 43 302 9.0 11.0 0.00 0.00 0.00 60 1024.0
20181216233024 43 299 10.0 13.0 0.00 0.00 0.00 60 1024.0
20181216232528 43 293 9.0 13.0 0.00 0.00 0.00 59 1023.9
20181216232012 43 302 9.0 11.0 0.00 0.00 0.00 59 1023.9
20181216231514 44 305 9.0 11.0 0.00 0.00 0.00 58 1023.9
20181216231008 44 308 9.0 11.0 0.00 0.00 0.00 57 1023.9
20181216230512 44 313 9.0 11.0 0.00 0.00 0.00 57 1023.8
20181216230005 45 298 8.0 10.0 0.00 0.00 0.00 57 1023.9
20181216225504 46 292 8.0 10.0 0.00 0.00 0.00 55 1023.8
20181216225006 46 300 8.0 12.0 0.00 0.00 0.00 54 1023.7
20181216224504 47 299 9.0 12.0 0.00 0.00 0.00 54 1023.7
20181216224004 47 305 9.0 12.0 0.00 0.00 0.00 54 1023.5
20181216223508 47 292 9.0 12.0 0.00 0.00 0.00 53 1023.4
20181216223008 48 296 8.0 11.0 0.00 0.00 0.00 52 1023.5
20181216222513 49 289 9.0 11.0 0.00 0.00 0.00 52 1023.5
20181216222006 49 294 8.0 11.0 0.00 0.00 0.00 52 1023.5
20181216221514 50 291 7.0 10.0 0.00 0.00 0.00 52 1023.4
20181216221003 51 301 8.0 11.0 0.00 0.00 0.00 51 1023.4
20181216220504 51 315 8.0 11.0 0.00 0.00 0.00 49 1023.3
20181216220003 51 311 9.0 13.0 0.00 0.00 0.00 49 1023.3
20181216215504 51 295 10.0 13.0 0.00 0.00 0.00 48 1023.3
20181216215001 52 313 9.0 13.0 0.00 0.00 0.00 48 1023.2
20181216214501 52 300 9.0 13.0 0.00 0.00 0.00 50 1023.2
20181216214007 52 307 10.0 13.0 0.00 0.00 0.00 47 1023.1
20181216213506 52 298 9.0 13.0 0.00 0.00 0.00 48 1023.0
20181216213001 53 292 9.0 12.0 0.00 0.00 0.00 49 1022.9
20181216212509 53 294 10.0 14.0 0.00 0.00 0.00 48 1023.0
20181216212001 53 317 10.0 14.0 0.00 0.00 0.00 46 1023.0
20181216211501 53 291 9.0 13.0 0.00 0.00 0.00 46 1023.0
20181216211003 53 300 10.0 14.0 0.00 0.00 0.00 45 1023.0
20181216210502 53 311 11.0 14.0 0.00 0.00 0.00 46 1023.0
20181216210011 54 286 11.0 15.0 0.00 0.00 0.00 45 1022.9
20181216205503 54 306 12.0 16.0 0.00 0.00 0.00 44 1022.9
20181216205005 54 308 11.0 16.0 0.00 0.00 0.00 44 1022.8
20181216204501 54 321 11.0 13.0 0.00 0.00 0.00 46 1022.8
20181216203958 54 309 10.0 13.0 0.00 0.00 0.00 46 1022.7
20181216203457 54 311 10.0 14.0 0.00 0.00 0.00 46 1022.6
20181216203011 54 305 10.0 14.0 0.00 0.00 0.00 46 1022.5
20181216202512 54 340 11.0 18.0 0.00 0.00 0.00 43 1022.4
20181216202009 54 313 11.0 18.0 0.00 0.00 0.00 47 1022.4
20181216201504 54 333 9.0 13.0 0.00 0.00 0.00 46 1022.3
20181216200958 54 313 8.0 11.0 0.00 0.00 0.00 48 1022.3
20181216200458 53 335 8.0 12.0 0.00 0.00 0.00 49 1022.3
20181216195957 53 306 9.0 12.0 0.00 0.00 0.00 48 1022.3
20181216195459 53 340 9.0 13.0 0.00 0.00 0.00 50 1022.3
20181216195001 53 330 10.0 13.0 0.00 0.00 0.00 50 1022.3
20181216194643 53 355 10.0 13.0 0.00 0.00 0.00 52 1023.7
20181216194456 53 318 10.0 13.0 0.00 0.00 0.00 52 1022.3
20181216193959 53 322 9.0 13.0 0.00 0.00 0.00 53 1022.2
20181216193456 52 317 9.0 13.0 0.00 0.00 0.00 54 1022.2
20181216192951 52 310 9.0 13.0 0.00 0.00 0.00 54 1022.3
20181216192452 52 317 10.0 13.0 0.00 0.00 0.00 54 1022.3
20181216191957 52 304 9.0 13.0 0.00 0.00 0.00 55 1022.3
20181216191443 51 309 9.0 12.0 0.00 0.00 0.00 55 1022.2
20181216190924 51 304 8.0 12.0 0.00 0.00 0.00 58 1022.3
20181216190420 51 295 8.0 12.0 0.00 0.00 0.00 57 1022.4
20181216185920 51 308 9.0 12.0 0.00 0.00 0.00 57 1022.4
20181216185422 50 302 8.0 11.0 0.00 0.00 0.00 58 1022.5
20181216184925 50 317 8.0 11.0 0.00 0.00 0.00 59 1022.4
20181216184419 50 307 8.0 11.0 0.00 0.00 0.00 59 1022.4
20181216183916 49 296 8.0 11.0 0.00 0.00 0.00 58 1022.4
20181216183410 49 302 7.0 9.0 0.00 0.00 0.00 59 1022.4
20181216182909 49 306 7.0 10.0 0.00 0.00 0.00 59 1022.4
20181216182410 49 282 8.0 12.0 0.00 0.00 0.00 60 1022.5
20181216181909 49 275 9.0 12.0 0.00 0.00 0.00 60 1022.7
20181216181407 48 280 8.0 11.0 0.00 0.00 0.00 59 1022.6
20181216180911 48 290 9.0 11.0 0.00 0.00 0.00 60 1022.7
20181216180409 49 291 8.0 12.0 0.00 0.00 0.00 59 1022.8
20181216175916 49 297 8.0 12.0 0.00 0.00 0.00 58 1022.7
20181216175409 49 294 5.0 11.0 0.00 0.00 0.00 57 1022.8
20181216174920 49 267 3.0 6.0 0.00 0.00 0.00 59 1022.6
20181216174415 48 286 2.0 5.0 0.00 0.00 0.00 59 1022.7
20181216173917 48 274 2.0 5.0 0.00 0.00 0.00 58 1022.7
20181216173411 48 261 1.0 5.0 0.00 0.00 0.00 58 1022.7
20181216172907 47 294 2.0 5.0 0.00 0.00 0.00 61 1022.8
20181216172409 47 294 2.0 5.0 0.00 0.00 0.00 60 1022.9
20181216171917 47 273 3.0 7.0 0.00 0.00 0.00 62 1023.0
20181216171552 46 265 2.0 7.0 0.00 0.00 0.00 61 1024.7
20181216171408 46 286 4.0 7.0 0.00 0.00 0.00 62 1023.1
20181216170924 46 316 5.0 7.0 0.00 0.00 0.00 62 1023.1
20181216170356 45 311 5.0 8.0 0.00 0.00 0.00 62 1023.1
20181216165900 45 322 5.0 8.0 0.00 0.00 0.00 63 1023.1
20181216165355 44 325 5.0 7.0 0.00 0.00 0.00 64 1023.1
20181216164852 44 333 5.0 7.0 0.00 0.00 0.00 65 1023.1
20181216164354 43 317 5.0 7.0 0.00 0.00 0.00 67 1023.3
20181216163849 43 314 6.0 8.0 0.00 0.00 0.00 68 1023.3
20181216163352 42 321 5.0 8.0 0.00 0.00 0.00 68 1023.3
20181216162850 41 312 3.0 7.0 0.00 0.00 0.00 69 1023.3
20181216162350 40 309 2.0 5.0 0.00 0.00 0.00 70 1023.1
20181216161848 40 337 4.0 7.0 0.00 0.00 0.00 70 1022.9
20181216161349 39 313 5.0 8.0 0.00 0.00 0.00 71 1023.1
20181216160845 38 332 5.0 8.0 0.00 0.00 0.00 72 1023.2
20181216160404 38 323 5.0 7.0 0.00 0.00 0.00 72 1023.3
20181216155845 37 311 6.0 9.0 0.00 0.00 0.00 71 1023.4
20181216155349 37 324 8.0 11.0 0.00 0.00 0.00 71 1023.4
20181216154842 37 312 9.0 11.0 0.00 0.00 0.00 71 1023.4
20181216154348 37 304 8.0 12.0 0.00 0.00 0.00 71 1023.2
20181216153847 37 310 8.0 12.0 0.00 0.00 0.00 71 1023.1
20181216153341 36 315 8.0 11.0 0.00 0.00 0.00 71 1023.0
20181216152850 36 301 8.0 11.0 0.00 0.00 0.00 71 1022.9
20181216152339 35 292 8.0 11.0 0.00 0.00 0.00 72 1022.9
20181216151852 35 283 8.0 11.0 0.00 0.00 0.00 71 1022.8
20181216151353 34 287 8.0 11.0 0.00 0.00 0.00 71 1022.7
20181216150850 34 291 9.0 11.0 0.00 0.00 0.00 70 1022.6
20181216150320 33 290 9.0 12.0 0.00 0.00 0.00 71 1022.6
20181216145815 33 285 8.0 12.0 0.00 0.00 0.00 71 1022.6
20181216145327 33 286 7.0 11.0 0.00 0.00 0.00 71 1022.5
20181216144817 33 284 8.0 11.0 0.00 0.00 0.00 70 1022.4
20181216144321 33 278 7.0 11.0 0.00 0.00 0.00 71 1022.5
20181216143814 32 264 6.0 11.0 0.00 0.00 0.00 72 1022.4
20181216143320 32 278 4.0 6.0 0.00 0.00 0.00 71 1022.3
20181216142828 31 246 3.0 6.0 0.00 0.00 0.00 70 1022.1
20181216142317 31 249 3.0 6.0 0.00 0.00 0.00 71 1022.1
20181216141812 31 258 3.0 6.0 0.00 0.00 0.00 71 1022.2
20181216141317 30 282 3.0 6.0 0.00 0.00 0.00 71 1022.1
20181216140817 30 271 3.0 6.0 0.00 0.00 0.00 71 1021.9
20181216140312 30 262 3.0 5.0 0.00 0.00 0.00 71 1021.8
20181216135815 30 265 2.0 5.0 0.00 0.00 0.00 69 1021.8
20181216135319 30 265 2.0 5.0 0.00 0.00 0.00 69 1021.7
20181216134818 30 255 1.0 4.0 0.00 0.00 0.00 68 1021.6
20181216134527 29 219 1.0 2.0 0.00 0.00 0.00 68 1023.1
20181216134310 30 219 1.0 2.0 0.00 0.00 0.00 68 1021.5
20181216133817 30 219 1.0 4.0 0.00 0.00 0.00 67 1021.2
20181216133311 30 219 1.0 4.0 0.00 0.00 0.00 67 1021.4
20181216132810 30 219 1.0 4.0 0.00 0.00 0.00 66 1021.5
20181216132306 30 219 1.0 4.0 0.00 0.00 0.00 66 1021.4
20181216131808 30 219 0.0 2.0 0.00 0.00 0.00 66 1021.4
20181216131307 30 219 0.0 0.0 0.00 0.00 0.00 65 1021.1
20181216130811 30 219 0.0 0.0 0.00 0.00 0.00 65 1021.1
20181216130309 31 219 0.0 1.0 0.00 0.00 0.00 65 1021.1
20181216125824 31 219 1.0 2.0 0.00 0.00 0.00 65 1021.1
20181216125314 31 219 1.0 4.0 0.00 0.00 0.00 65 1021.0
20181216124809 31 219 1.0 4.0 0.00 0.00 0.00 65 1021.0
20181216124312 31 219 0.0 2.0 0.00 0.00 0.00 65 1021.0
20181216123805 31 219 0.0 2.0 0.00 0.00 0.00 64 1021.0
20181216123303 31 219 0.0 2.0 0.00 0.00 0.00 64 1021.0
20181216122802 31 219 0.0 2.0 0.00 0.00 0.00 64 1021.0
20181216122255 31 219 0.0 2.0 0.00 0.00 0.00 64 1020.9
20181216121756 31 219 1.0 2.0 0.00 0.00 0.00 64 1020.8
20181216121300 31 219 1.0 4.0 0.00 0.00 0.00 64 1020.8
20181216120742 31 219 2.0 4.0 0.00 0.00 0.00 64 1020.9
20181216120244 32 219 2.0 4.0 0.00 0.00 0.00 63 1020.9
20181216115757 32 218 2.0 4.0 0.00 0.00 0.00 63 1020.8
20181216115302 32 218 2.0 4.0 0.00 0.00 0.00 62 1020.8
20181216114801 32 217 2.0 4.0 0.00 0.00 0.00 62 1020.9
20181216114226 32 217 2.0 4.0 0.00 0.00 0.00 62 1020.8
20181216113725 32 217 2.0 4.0 0.00 0.00 0.00 62 1020.8
20181216113231 32 217 2.0 5.0 0.00 0.00 0.00 62 1020.9
20181216112713 32 217 2.0 5.0 0.00 0.00 0.00 62 1020.9
20181216112217 32 217 2.0 4.0 0.00 0.00 0.00 62 1020.8
20181216111711 32 217 2.0 4.0 0.00 0.00 0.00 62 1020.8
20181216111157 32 217 2.0 5.0 0.00 0.00 0.00 62 1020.7
20181216110643 32 217 2.0 5.0 0.00 0.00 0.00 63 1020.7
20181216110209 31 217 2.0 5.0 0.00 0.00 0.00 62 1020.7
20181216105635 31 217 3.0 5.0 0.00 0.00 0.00 63 1020.7
20181216105124 31 217 2.0 5.0 0.00 0.00 0.00 63 1020.8
20181216104621 31 216 2.0 4.0 0.00 0.00 0.00 64 1020.9
20181216104537 31 216 2.0 4.0 0.00 0.00 0.00 64 1022.5
20181216104116 31 216 1.0 4.0 0.00 0.00 0.00 64 1020.8
20181216103617 31 216 0.0 4.0 0.00 0.00 0.00 64 1020.9
20181216103114 31 216 0.0 0.0 0.00 0.00 0.00 64 1020.8
20181216103021 30 216 0.0 0.0 0.00 0.00 0.00 64 1022.5
20181216102614 31 216 0.0 0.0 0.00 0.00 0.00 65 1020.8
20181216102123 31 216 0.0 0.0 0.00 0.00 0.00 64 1020.8
20181216101612 31 216 0.0 0.0 0.00 0.00 0.00 65 1020.7
20181216101526 30 216 0.0 0.0 0.00 0.00 0.00 65 1022.4
20181216101113 31 216 0.0 0.0 0.00 0.00 0.00 65 1020.8
20181216100615 31 216 0.0 0.0 0.00 0.00 0.00 64 1020.9
20181216100107 31 216 0.0 0.0 0.00 0.00 0.00 65 1021.0
20181216095604 31 216 0.0 0.0 0.00 0.00 0.00 65 1021.0
20181216095107 31 216 0.0 0.0 0.00 0.00 0.00 65 1021.1
20181216094602 31 216 0.0 0.0 0.00 0.00 0.00 65 1021.0
20181216094100 31 216 0.0 0.0 0.00 0.00 0.00 66 1021.0
20181216093604 31 216 0.0 0.0 0.00 0.00 0.00 66 1021.0
20181216093057 31 216 0.0 0.0 0.00 0.00 0.00 66 1021.1
20181216092553 31 216 0.0 0.0 0.00 0.00 0.00 66 1021.1
20181216092100 31 216 0.0 0.0 0.00 0.00 0.00 65 1021.1
20181216091648 31 216 0.0 0.0 0.00 0.00 0.00 66 1021.1
20181216091110 32 216 0.0 0.0 0.00 0.00 0.00 65 1021.1
20181216090620 32 216 0.0 0.0 0.00 0.00 0.00 66 1021.4
20181216090057 32 216 0.0 0.0 0.00 0.00 0.00 65 1021.2
20181216085556 32 216 0.0 0.0 0.00 0.00 0.00 65 1021.2
20181216085212 32 216 0.0 2.0 0.00 0.00 0.00 65 1021.2
20181216084553 32 216 1.0 2.0 0.00 0.00 0.00 65 1021.2
20181216084107 32 216 1.0 2.0 0.00 0.00 0.00 66 1021.4
20181216083551 31 216 1.0 2.0 0.00 0.00 0.00 66 1021.1
20181216083045 31 216 1.0 2.0 0.00 0.00 0.00 67 1020.9
20181216082545 31 216 1.0 3.0 0.00 0.00 0.00 68 1021.0
20181216082047 32 216 1.0 4.0 0.00 0.00 0.00 67 1021.0
20181216081547 32 216 2.0 4.0 0.00 0.00 0.00 67 1021.0
20181216081053 32 216 1.0 4.0 0.00 0.00 0.00 67 1021.0
20181216080551 32 216 1.0 4.0 0.00 0.00 0.00 68 1020.9
20181216080136 31 216 0.0 4.0 0.00 0.00 0.00 68 1022.5
20181216080036 32 216 2.0 4.0 0.00 0.00 0.00 68 1020.8
20181216075543 32 216 2.0 4.0 0.00 0.00 0.00 68 1020.9
20181216075039 32 216 2.0 4.0 0.00 0.00 0.00 67 1020.9
20181216074542 33 216 2.0 4.0 0.00 0.00 0.00 65 1021.0
20181216074513 32 216 1.0 3.0 0.00 0.00 0.00 65 1022.7
20181216074033 33 216 1.0 3.0 0.00 0.00 0.00 65 1021.1
20181216073548 33 216 1.0 4.0 0.00 0.00 0.00 64 1021.2